ACP8V DIAP-GUCY

Flight info

Callsign ACP8V
Flight time N/A
Altitude 32000
Route NATNA DCT VOXIR DCT ONPAL DCT UBUTU DCT PONKA DCT MOBMO DCT RAMAK MOPIS1B
Aircraft B722/M-SDFGHRWY/C

Departure

Time 2026-05-05 18:04
Airport Félix-Houphouët-Boigny International Airport (DIAP)

Arrival

Time N/A
Airport Ahmed Sékou Touré International Airport (GUCY)
Time Latitude Longitude Altitude Speed Heading
2026-05-05 16:47 5.25095 -3.93311 30 ft 0 kts 292°
2026-05-05 17:43 5.25088 -3.93293 30 ft 4 kts 293°
2026-05-05 17:44 5.25077 -3.93268 30 ft 4 kts 294°
2026-05-05 17:44 5.25066 -3.93244 31 ft 3 kts 294°
2026-05-05 17:44 5.25061 -3.93222 31 ft 4 kts 263°
2026-05-05 17:44 5.25073 -3.93206 30 ft 4 kts 207°
2026-05-05 17:45 5.25092 -3.93198 30 ft 1 kts 202°
2026-05-05 17:45 5.25095 -3.93197 29 ft 0 kts 202°
2026-05-05 17:54 5.25093 -3.93198 30 ft 2 kts 202°
2026-05-05 17:54 5.25065 -3.93209 31 ft 7 kts 202°
2026-05-05 17:54 5.25018 -3.93229 32 ft 7 kts 202°
2026-05-05 17:54 5.24973 -3.93232 33 ft 7 kts 167°
2026-05-05 17:55 5.24913 -3.93181 34 ft 16 kts 109°
2026-05-05 17:55 5.24918 -3.93091 32 ft 16 kts 39°
2026-05-05 17:55 5.25048 -3.93030 29 ft 24 kts 23°
2026-05-05 17:55 5.25213 -3.92962 29 ft 27 kts 22°
2026-05-05 17:56 5.25396 -3.92889 28 ft 29 kts 22°
2026-05-05 17:56 5.25588 -3.92810 28 ft 31 kts 22°
2026-05-05 17:56 5.25790 -3.92726 29 ft 32 kts 22°
2026-05-05 17:56 5.25998 -3.92639 28 ft 33 kts 22°
2026-05-05 17:57 5.26218 -3.92549 27 ft 35 kts 22°
2026-05-05 17:57 5.26450 -3.92454 23 ft 37 kts 22°
2026-05-05 17:57 5.26690 -3.92356 25 ft 37 kts 22°
2026-05-05 17:57 5.26928 -3.92259 30 ft 37 kts 22°
2026-05-05 17:58 5.27166 -3.92160 29 ft 37 kts 25°
2026-05-05 17:58 5.27302 -3.92107 28 ft 7 kts
2026-05-05 17:58 5.27344 -3.92118 27 ft 8 kts 341°
2026-05-05 17:58 5.27377 -3.92125 27 ft 1 kts 45°
2026-05-05 17:59 5.27378 -3.92123 26 ft 0 kts 71°
2026-05-05 18:01 5.27378 -3.92112 26 ft 3 kts 115°
2026-05-05 18:01 5.27355 -3.92095 26 ft 5 kts 172°
2026-05-05 18:02 5.27311 -3.92102 28 ft 7 kts 197°
2026-05-05 18:02 5.27263 -3.92120 29 ft 0 kts 201°
2026-05-05 18:03 5.27187 -3.92152 29 ft 36 kts 202°
2026-05-05 18:03 5.26793 -3.92313 27 ft 86 kts 201°
2026-05-05 18:03 5.26089 -3.92602 28 ft 129 kts 203°
2026-05-05 18:03 5.25167 -3.92985 108 ft 153 kts 201°
2026-05-05 18:04 5.24177 -3.93376 533 ft 152 kts 204°
2026-05-05 18:04 5.23229 -3.93802 1060 ft 147 kts 205°
2026-05-05 18:04 5.22299 -3.94284 1399 ft 156 kts 208°
2026-05-05 18:04 5.21324 -3.94786 1846 ft 158 kts 207°
2026-05-05 18:05 5.20374 -3.95291 2357 ft 152 kts 205°
2026-05-05 18:05 5.19430 -3.95794 2660 ft 158 kts 206°
2026-05-05 18:05 5.18428 -3.96326 2912 ft 170 kts 207°
2026-05-05 18:05 5.17333 -3.96939 3139 ft 189 kts 207°
2026-05-05 18:06 5.16191 -3.97582 3731 ft 189 kts 207°
2026-05-05 18:06 5.15413 -3.98049 3985 ft 199 kts 214°
2026-05-05 18:06 5.14200 -3.99568 4442 ft 223 kts 247°
2026-05-05 18:06 5.13962 -4.01069 5254 ft 215 kts 274°
2026-05-05 18:07 5.14375 -4.02530 5729 ft 229 kts 300°
2026-05-05 18:07 5.15198 -4.03960 6167 ft 238 kts 306°
2026-05-05 18:07 5.16212 -4.05176 7108 ft 216 kts 318°
2026-05-05 18:07 5.17351 -4.06111 7730 ft 216 kts 327°
2026-05-05 18:08 5.18658 -4.07048 7789 ft 245 kts 329°
2026-05-05 18:08 5.20169 -4.07859 8390 ft 240 kts 343°
2026-05-05 18:08 5.21609 -4.08510 9462 ft 217 kts 343°
2026-05-05 18:08 5.23035 -4.09027 9868 ft 227 kts 347°
2026-05-05 18:09 5.24596 -4.09547 9938 ft 251 kts 351°
2026-05-05 18:09 5.26291 -4.09928 10567 ft 243 kts 353°
2026-05-05 18:09 5.27861 -4.10302 11566 ft 222 kts 352°
2026-05-05 18:09 5.29302 -4.10910 12001 ft 239 kts 321°
2026-05-05 18:10 5.30257 -4.12308 12435 ft 243 kts 298°
2026-05-05 18:10 5.30934 -4.13854 12904 ft 244 kts 295°
2026-05-05 18:10 5.31476 -4.15497 13208 ft 250 kts 288°
2026-05-05 18:10 5.31921 -4.17188 13602 ft 251 kts 287°
2026-05-05 18:11 5.32341 -4.18894 13928 ft 254 kts 285°
2026-05-05 18:11 5.32727 -4.20659 14168 ft 263 kts 283°
2026-05-05 18:11 5.33079 -4.22458 14429 ft 270 kts 282°
2026-05-05 18:11 5.33418 -4.24343 14695 ft 279 kts 281°
2026-05-05 18:12 5.33752 -4.26292 14962 ft 288 kts 281°
2026-05-05 18:12 5.34081 -4.28307 15221 ft 297 kts 281°
2026-05-05 18:12 5.34420 -4.30389 15488 ft 307 kts 281°
2026-05-05 18:12 5.34775 -4.32539 15755 ft 317 kts 281°
2026-05-05 18:13 5.35146 -4.34757 16019 ft 327 kts 281°
2026-05-05 18:13 5.35536 -4.37073 16061 ft 346 kts 281°
2026-05-05 18:13 5.35953 -4.39526 15999 ft 367 kts 281°
2026-05-05 18:13 5.36442 -4.42117 15905 ft 387 kts 286°
2026-05-05 18:14 5.37632 -4.44568 15801 ft 401 kts 310°
2026-05-05 18:14 5.39670 -4.46527 15717 ft 413 kts 324°
2026-05-05 18:14 5.42063 -4.48208 15653 ft 423 kts 329°
2026-05-05 18:14 5.44323 -4.50007 15524 ft 409 kts 314°
2026-05-05 18:15 5.45772 -4.52401 15406 ft 399 kts 290°
2026-05-05 18:15 5.46161 -4.55100 15282 ft 387 kts 266°
2026-05-05 18:15 5.45461 -4.57639 15166 ft 373 kts 240°
2026-05-05 18:15 5.43851 -4.59562 15056 ft 353 kts 213°
2026-05-05 18:16 5.41696 -4.60531 14956 ft 331 kts 187°
2026-05-05 18:16 5.39488 -4.60584 14844 ft 309 kts 162°
2026-05-05 18:16 5.37644 -4.59668 14755 ft 288 kts 137°
2026-05-05 18:16 5.36229 -4.58309 14650 ft 276 kts 128°
2026-05-05 18:17 5.34976 -4.56882 14537 ft 269 kts 127°
2026-05-05 18:17 5.33747 -4.55490 14424 ft 263 kts 127°
2026-05-05 18:17 5.32543 -4.54133 14292 ft 258 kts 128°
2026-05-05 18:17 5.31361 -4.52804 14161 ft 253 kts 127°
2026-05-05 18:18 5.30209 -4.51491 14019 ft 246 kts 119°
2026-05-05 18:18 5.29656 -4.49944 13913 ft 232 kts 96°
2026-05-05 18:18 5.29473 -4.48358 13809 ft 226 kts 93°
2026-05-05 18:18 5.29367 -4.46795 13687 ft 222 kts 91°
2026-05-05 18:19 5.29291 -4.45266 13555 ft 218 kts 91°
2026-05-05 18:19 5.29220 -4.43759 13414 ft 214 kts 91°
2026-05-05 18:19 5.29153 -4.42282 13224 ft 212 kts 91°
2026-05-05 18:19 5.29085 -4.40751 12724 ft 227 kts 91°
2026-05-05 18:20 5.29006 -4.39122 12267 ft 240 kts 92°
2026-05-05 18:20 5.28915 -4.37413 11818 ft 250 kts 92°
2026-05-05 18:20 5.28813 -4.35631 11371 ft 260 kts 93°
2026-05-05 18:20 5.28698 -4.33784 10923 ft 269 kts 93°
2026-05-05 18:21 5.28578 -4.31886 10477 ft 277 kts 93°
2026-05-05 18:21 5.28470 -4.29929 10041 ft 284 kts 92°
2026-05-05 18:21 5.28380 -4.27940 9577 ft 286 kts 92°
2026-05-05 18:21 5.28294 -4.25946 9088 ft 287 kts 92°
2026-05-05 18:22 5.28200 -4.23959 8603 ft 289 kts 93°
2026-05-05 18:22 5.28094 -4.21915 8113 ft 290 kts 93°
2026-05-05 18:22 5.27980 -4.19889 7645 ft 292 kts 94°
2026-05-05 18:22 5.27856 -4.17852 7165 ft 293 kts 94°
2026-05-05 18:23 5.27723 -4.15805 6706 ft 295 kts 94°
2026-05-05 18:23 5.27616 -4.13753 6230 ft 296 kts 89°
2026-05-05 18:23 5.28122 -4.11786 5755 ft 300 kts 62°
2026-05-05 18:23 5.29575 -4.10293 5280 ft 305 kts 32°
2026-05-05 18:24 5.31596 -4.09628 4825 ft 309 kts 11°
2026-05-05 18:24 5.33722 -4.09294 4365 ft 309 kts 13°
2026-05-05 18:24 5.35785 -4.08730 3893 ft 307 kts 20°
2026-05-05 18:24 5.37722 -4.07859 3420 ft 305 kts 30°
2026-05-05 18:25 5.39485 -4.06699 3007 ft 301 kts 37°
2026-05-05 18:25 5.40042 -4.06266 3002 ft 294 kts 41°
2026-05-05 18:25 5.42351 -4.04015 2972 ft 264 kts 47°
2026-05-05 18:25 5.43481 -4.02640 2981 ft 247 kts 57°
2026-05-05 18:26 5.44387 -4.01239 2987 ft 231 kts 64°
2026-05-05 18:26 5.45073 -3.99835 2978 ft 218 kts 66°
2026-05-05 18:26 5.45607 -3.98473 2980 ft 201 kts 77°
2026-05-05 18:26 5.45996 -3.97153 2984 ft 195 kts 76°
2026-05-05 18:27 5.46375 -3.95862 2984 ft 191 kts 79°
2026-05-05 18:27 5.46521 -3.95005 2993 ft 185 kts 86°
2026-05-05 18:27 5.46665 -3.93735 2993 ft 183 kts 86°
2026-05-05 18:27 5.46693 -3.92028 3001 ft 181 kts 98°
2026-05-05 18:28 5.46562 -3.89924 2995 ft 182 kts 96°
2026-05-05 18:28 5.46473 -3.88660 2992 ft 182 kts 97°
2026-05-05 18:28 5.46249 -3.87428 2998 ft 177 kts 112°
2026-05-05 18:29 5.45465 -3.86532 2783 ft 177 kts 165°
2026-05-05 18:29 5.44252 -3.86503 2720 ft 175 kts 187°
2026-05-05 18:29 5.43024 -3.86650 2557 ft 179 kts 188°
2026-05-05 18:29 5.41812 -3.86935 2384 ft 179 kts 196°
2026-05-05 18:30 5.40619 -3.87304 2174 ft 177 kts 197°
2026-05-05 18:30 5.39481 -3.87658 1999 ft 165 kts 197°
2026-05-05 18:30 5.38466 -3.87975 1959 ft 144 kts 196°
2026-05-05 18:30 5.37523 -3.88283 1967 ft 141 kts 197°
2026-05-05 18:31 5.36590 -3.88601 1985 ft 146 kts 198°
2026-05-05 18:31 5.35582 -3.88956 1838 ft 156 kts 198°
2026-05-05 18:31 5.34619 -3.89306 1639 ft 140 kts 200°
2026-05-05 18:31 5.33757 -3.89627 1359 ft 127 kts 200°
2026-05-05 18:32 5.32935 -3.89938 1069 ft 127 kts 199°
2026-05-05 18:32 5.32082 -3.90234 834 ft 128 kts 196°
2026-05-05 18:32 5.31313 -3.90489 717 ft 116 kts 198°
2026-05-05 18:32 5.30497 -3.90824 761 ft 124 kts 201°
2026-05-05 18:33 5.29708 -3.91138 584 ft 120 kts 200°
2026-05-05 18:33 5.28887 -3.91457 404 ft 137 kts 201°
2026-05-05 18:33 5.28006 -3.91812 207 ft 132 kts 202°
2026-05-05 18:33 5.27183 -3.92150 30 ft 123 kts 202°
2026-05-05 18:34 5.26486 -3.92436 24 ft 95 kts 201°
2026-05-05 18:34 5.25937 -3.92664 30 ft 80 kts 202°
2026-05-05 18:34 5.25476 -3.92851 29 ft 57 kts 204°
2026-05-05 18:34 5.25181 -3.92978 30 ft 36 kts 206°
2026-05-05 18:35 5.24989 -3.93052 30 ft 16 kts 200°
2026-05-05 18:35 5.24913 -3.93116 33 ft 14 kts 244°
2026-05-05 18:35 5.24932 -3.93203 34 ft 14 kts 312°
2026-05-05 18:35 5.24983 -3.93239 33 ft 8 kts
2026-05-05 18:36 5.25030 -3.93226 32 ft 3 kts
2026-05-05 18:36 5.25063 -3.93231 31 ft 6 kts 323°
2026-05-05 18:36 5.25079 -3.93272 30 ft 5 kts 293°
2026-05-05 18:36 5.25089 -3.93295 30 ft 2 kts 292°
2026-05-05 18:37 5.25097 -3.93313 29 ft 0 kts 291°